FW9451 Weather Reports


Display with metric or nautical units.
time (UTC)temp
F
wind
direction
speed
MPH
gust
MPH
rain 1hr
in
rain 24hr
in
rain mn
in
humidity
%
barometer
mb
20260510034552 43 63 0.0 1.0 0.02 0.42 0.42 94 1013.5
20260510033056 43 0 0.0 2.0 0.03 0.42 0.42 94 1013.7
20260510031551 43 53 0.0 2.0 0.04 0.41 0.41 94 1013.8
20260510030054 43 0 0.0 2.0 0.06 0.41 0.41 94 1013.9
20260510024551 43 53 1.0 3.0 0.05 0.40 0.40 94 1014.1
20260510023049 43 17 0.0 2.0 0.04 0.39 0.39 94 1014.1
20260510021638 43 0 0.0 3.0 0.02 0.37 0.37 94 1014.2
20260510020053 43 10 0.0 3.0 0.00 0.35 0.35 94 1014.2
20260510014557 43 360 1.0 6.0 0.00 0.35 0.35 94 1014.2
20260510013058 43 0 0.0 7.0 0.01 0.35 0.35 94 1014.1
20260510011549 42 109 1.0 8.0 0.01 0.35 0.35 94 1014.0
20260510010057 42 155 2.0 7.0 0.02 0.35 0.35 94 1014.0
20260510004555 43 89 2.0 6.0 0.02 0.35 0.35 93 1013.8
20260510003048 43 104 1.0 3.0 0.03 0.34 0.34 93 1013.9
20260510001550 43 98 0.0 3.0 0.03 0.34 0.34 93 1014.0
20260510000048 43 0 1.0 5.0 0.03 0.33 0.33 93 1014.2
20260509234549 43 0 0.0 2.0 0.04 0.33 0.33 93 1014.2
20260509233051 43 69 0.0 4.0 0.03 0.31 0.31 93 1014.3
20260509231553 43 34 1.0 7.0 0.03 0.31 0.31 93 1014.2
20260509230059 43 0 0.0 7.0 0.03 0.30 0.30 93 1014.2
20260509224556 43 0 1.0 6.0 0.05 0.29 0.29 93 1014.2
20260509223053 43 30 0.0 8.0 0.06 0.28 0.28 93 1014.3
20260509221550 43 360 1.0 8.0 0.07 0.28 0.28 93 1014.3
20260509220050 43 110 0.0 10.0 0.06 0.26 0.26 93 1014.6
20260509214549 43 107 1.0 8.0 0.04 0.24 0.24 93 1014.8
20260509213104 43 136 2.0 7.0 0.02 0.22 0.22 92 1014.6
20260509211602 43 53 2.0 7.0 0.02 0.21 0.21 92 1014.6
20260509210053 43 53 2.0 6.0 0.02 0.20 0.20 92 1014.4
20260509204549 43 57 1.0 5.0 0.04 0.20 0.20 92 1014.6
20260509203125 43 0 1.0 8.0 0.06 0.20 0.20 92 1014.7
20260509201603 43 88 1.0 9.0 0.08 0.19 0.19 92 1015.4
20260509200103 43 123 3.0 8.0 0.09 0.18 0.18 91 1015.5
20260509194558 43 109 2.0 6.0 0.08 0.16 0.16 91 1015.6
20260509193057 44 146 1.0 8.0 0.08 0.14 0.14 91 1015.5
20260509191606 44 138 1.0 7.0 0.07 0.11 0.11 90 1015.6
20260509190055 44 142 1.0 8.0 0.07 0.09 0.09 90 1015.8
20260509184604 44 237 3.0 9.0 0.06 0.07 0.07 89 1015.9
20260509183059 45 137 1.0 7.0 0.06 0.06 0.06 88 1015.9
20260509181600 45 209 3.0 7.0 0.04 0.04 0.04 86 1015.9
20260509180107 46 0 0.0 3.0 0.02 0.02 0.02 85 1015.9
20260509174551 46 154 0.0 6.0 0.01 0.01 0.01 83 1015.9
20260509173102 46 150 1.0 8.0 0.00 0.00 0.00 78 1015.8
20260509171547 48 150 4.0 14.0 0.00 0.00 0.00 69 1015.8
20260509170052 48 222 5.0 12.0 0.00 0.00 0.00 68 1015.7
20260509164551 49 211 5.0 14.0 0.00 0.00 0.00 63 1015.8
20260509163052 51 186 9.0 22.0 0.00 0.00 0.00 55 1015.9
20260509161559 52 154 6.0 14.0 0.00 0.00 0.00 49 1015.7
20260509160047 53 159 8.0 16.0 0.00 0.00 0.00 45 1015.6
20260509154552 54 198 8.0 15.0 0.00 0.00 0.00 43 1015.6
20260509153101 54 201 6.0 13.0 0.00 0.00 0.00 40 1015.7
20260509151552 54 164 4.0 12.0 0.00 0.00 0.00 43 1015.4
20260509150049 55 159 2.0 12.0 0.00 0.00 0.00 38 1015.3
20260509144551 55 193 4.0 11.0 0.00 0.00 0.00 38 1015.3
20260509143043 55 214 6.0 11.0 0.00 0.00 0.00 41 1015.1
20260509141550 55 225 4.0 10.0 0.00 0.00 0.00 38 1015.2
20260509140059 54 241 6.0 16.0 0.00 0.00 0.00 40 1015.2
20260509134551 54 165 5.0 14.0 0.00 0.00 0.00 39 1015.3
20260509133048 53 146 4.0 14.0 0.00 0.00 0.00 40 1015.3
20260509131547 53 249 3.0 9.0 0.00 0.00 0.00 42 1015.5
20260509130048 52 221 7.0 10.0 0.00 0.00 0.00 42 1015.4
20260509124551 52 0 2.0 10.0 0.00 0.00 0.00 49 1015.5
20260509123050 51 261 5.0 10.0 0.00 0.00 0.00 44 1015.6
20260509121548 50 209 6.0 11.0 0.00 0.00 0.00 47 1015.7
20260509120047 50 204 2.0 7.0 0.00 0.00 0.00 48 1015.6
20260509114546 49 150 1.0 5.0 0.00 0.00 0.00 48 1015.7
20260509113046 47 218 2.0 3.0 0.00 0.00 0.00 60 1015.8
20260509111557 46 218 1.0 3.0 0.00 0.00 0.00 55 1015.7
20260509110049 45 218 1.0 2.0 0.00 0.00 0.00 53 1015.5
20260509104605 45 218 1.0 3.0 0.00 0.00 0.00 50 1015.5
20260509103100 46 0 0.0 1.0 0.00 0.00 0.00 47 1015.3
20260509101606 46 0 0.0 2.0 0.00 0.00 0.00 47 1015.0
20260509100055 46 218 0.0 2.0 0.00 0.00 0.00 47 1014.9
20260509094557 45 0 0.0 1.0 0.00 0.00 0.00 48 1014.5
20260509093053 45 0 0.0 2.0 0.00 0.00 0.00 48 1014.4
20260509091556 45 0 0.0 0.0 0.00 0.00 0.00 50 1014.3
20260509090059 45 0 0.0 0.0 0.00 0.00 0.00 50 1014.2
20260509084558 45 0 0.0 2.0 0.00 0.00 0.00 50 1014.3
20260509083106 45 0 0.0 1.0 0.00 0.00 0.00 51 1014.4
20260509081554 45 0 0.0 2.0 0.00 0.00 0.00 50 1014.4
20260509080051 45 0 0.0 3.0 0.00 0.00 0.00 51 1014.5
20260509074609 44 218 1.0 4.0 0.00 0.00 0.00 52 1014.4
20260509073105 44 0 1.0 4.0 0.00 0.00 0.00 53 1014.4
20260509071555 45 0 1.0 2.0 0.00 0.00 0.00 54 1014.2
20260509070056 45 228 0.0 1.0 0.00 0.00 0.00 57 1014.1
20260509064550 45 0 0.0 2.0 0.00 0.00 0.00 53 1014.1
20260509063100 45 228 1.0 3.0 0.00 0.00 0.00 52 1013.9
20260509061552 45 228 0.0 2.0 0.00 0.00 0.00 49 1013.7
20260509060107 46 228 1.0 2.0 0.00 0.00 0.00 48 1013.8
20260509054548 46 228 1.0 2.0 0.00 0.00 0.00 47 1013.8
20260509053103 46 228 0.0 2.0 0.00 0.00 0.00 48 1013.7
20260509051558 46 228 0.0 2.0 0.00 0.00 0.00 47 1013.8
20260509050052 46 228 1.0 2.0 0.00 0.00 0.00 48 1013.8
20260509044553 46 0 1.0 2.0 0.00 0.00 0.00 47 1013.8
20260509043058 46 228 1.0 2.0 0.00 0.00 0.00 47 1013.8
20260509041553 47 228 0.0 2.0 0.00 0.00 0.00 46 1013.7
20260509040105 46 228 0.0 2.0 0.00 0.00 0.00 47 1013.5